FW6835 Weather Reports


Display with metric or nautical units.
time (UTC)temp
F
wind
direction
speed
MPH
gust
MPH
rain 1hr
in
rain 24hr
in
rain mn
in
humidity
%
barometer
mb
20260904181511 62 91 1.0 9.0 0.06 0.06 0.06 92 1011.9
20260904181012 63 105 2.0 9.0 0.05 0.06 0.06 91 1011.7
20260904180514 64 69 2.0 6.0 0.05 0.06 0.06 89 1011.7
20260904180010 65 142 1.0 11.0 0.05 0.06 0.06 87 1011.8
20260904175510 67 101 3.0 11.0 0.05 0.06 0.06 85 1011.4
20260904175010 69 86 4.0 13.0 0.03 0.04 0.04 81 1011.6
20260904174509 72 74 3.0 13.0 0.00 0.01 0.01 76 1011.3
20260904174008 73 138 7.0 11.0 0.00 0.01 0.01 73 1010.4
20260904173507 73 193 2.0 9.0 0.00 0.01 0.01 73 1010.0
20260904173007 73 215 3.0 10.0 0.00 0.01 0.01 73 1010.0
20260904172507 73 252 2.0 12.0 0.00 0.01 0.01 73 1010.0
20260904172007 73 268 4.0 12.0 0.00 0.01 0.01 73 1009.9
20260904171506 73 282 4.0 11.0 0.00 0.01 0.01 73 1010.0
20260904171006 73 241 3.0 12.0 0.00 0.01 0.01 72 1010.0
20260904170506 74 244 5.0 12.0 0.00 0.01 0.01 72 1010.0
20260904170006 74 241 4.0 10.0 0.00 0.01 0.01 72 1010.1
20260904165506 74 178 3.0 11.0 0.00 0.01 0.01 72 1010.1
20260904165005 74 228 4.0 15.0 0.00 0.01 0.01 72 1010.1
20260904164507 74 209 4.0 15.0 0.00 0.01 0.01 73 1010.1
20260904164005 73 251 3.0 12.0 0.00 0.01 0.01 72 1010.1
20260904163502 74 257 3.0 11.0 0.00 0.01 0.01 73 1010.3
20260904163109 74 222 3.0 10.0 0.00 0.01 0.01 73 1010.3
20260904162502 73 227 4.0 10.0 0.00 0.01 0.01 73 1010.5
20260904162000 73 237 3.0 10.0 0.00 0.01 0.01 73 1010.5
20260904161600 74 273 4.0 12.0 0.00 0.01 0.01 73 1010.6
20260904161104 74 253 4.0 12.0 0.00 0.01 0.01 73 1010.6
20260904160603 74 264 4.0 11.0 0.00 0.01 0.01 74 1010.5
20260904155602 73 229 5.0 11.0 0.00 0.01 0.01 73 1010.6
20260904155101 74 222 5.0 14.0 0.00 0.01 0.01 73 1010.7
20260904154558 74 289 4.0 14.0 0.00 0.01 0.01 72 1010.8
20260904154102 74 241 5.0 14.0 0.00 0.01 0.01 72 1010.9
20260904153658 74 250 5.0 16.0 0.00 0.01 0.01 73 1010.8
20260904153105 74 313 7.0 16.0 0.00 0.01 0.01 72 1010.9
20260904152557 74 234 4.0 11.0 0.00 0.01 0.01 73 1010.7
20260904152056 74 244 5.0 14.0 0.00 0.01 0.01 73 1010.8
20260904151600 74 276 5.0 14.0 0.00 0.01 0.01 72 1010.8
20260904151056 74 265 6.0 13.0 0.00 0.01 0.01 72 1010.8
20260904150556 75 203 6.0 16.0 0.00 0.01 0.01 72 1010.9
20260904150056 75 286 7.0 16.0 0.00 0.01 0.01 72 1010.9
20260904145556 75 315 5.0 13.0 0.00 0.01 0.01 72 1010.8
20260904145055 75 259 5.0 18.0 0.00 0.01 0.01 71 1010.9
20260904144556 75 279 8.0 18.0 0.00 0.01 0.01 71 1011.0
20260904144054 75 246 7.0 15.0 0.00 0.01 0.01 71 1010.9
20260904143553 75 215 7.0 15.0 0.00 0.01 0.01 71 1011.0
20260904143052 75 233 3.0 14.0 0.00 0.01 0.01 75 1011.0
20260904142554 74 232 6.0 15.0 0.00 0.01 0.01 74 1011.1
20260904142050 74 189 3.0 13.0 0.00 0.01 0.01 75 1011.2
20260904141549 74 190 5.0 15.0 0.00 0.01 0.01 77 1011.1
20260904141049 73 228 3.0 15.0 0.00 0.01 0.01 76 1011.3
20260904140549 73 207 3.0 12.0 0.00 0.01 0.01 77 1011.2
20260904140051 73 203 5.0 15.0 0.00 0.01 0.01 75 1011.3
20260904135548 73 264 3.0 10.0 0.00 0.01 0.01 76 1011.4
20260904135047 74 187 3.0 12.0 0.00 0.01 0.01 77 1011.5
20260904134548 73 221 5.0 12.0 0.00 0.01 0.01 77 1011.6
20260904134050 72 148 3.0 14.0 0.00 0.01 0.01 79 1011.7
20260904133542 72 292 6.0 14.0 0.00 0.01 0.01 78 1011.7
20260904133041 72 255 3.0 11.0 0.00 0.01 0.01 79 1011.7
20260904132541 71 202 3.0 10.0 0.00 0.01 0.01 80 1012.0
20260904132040 71 255 4.0 12.0 0.00 0.01 0.01 80 1012.1
20260904131538 71 191 4.0 12.0 0.00 0.01 0.01 80 1012.1
20260904131037 71 215 3.0 12.0 0.00 0.01 0.01 81 1012.2
20260904130537 70 232 4.0 12.0 0.00 0.01 0.01 80 1012.2
20260904130036 70 188 3.0 12.0 0.00 0.01 0.01 84 1012.3
20260904125537 70 223 4.0 12.0 0.00 0.01 0.01 83 1012.3
20260904125034 69 191 2.0 6.0 0.00 0.01 0.01 84 1012.4
20260904124534 69 157 1.0 7.0 0.00 0.01 0.01 84 1012.5
20260904124031 69 237 1.0 8.0 0.00 0.01 0.01 84 1012.6
20260904123535 69 225 2.0 8.0 0.00 0.01 0.01 84 1012.7
20260904123030 69 180 2.0 6.0 0.00 0.01 0.01 84 1012.7
20260904122530 69 182 3.0 6.0 0.00 0.01 0.01 84 1012.9
20260904122030 69 177 2.0 9.0 0.00 0.01 0.01 84 1012.9
20260904121529 68 199 2.0 9.0 0.00 0.01 0.01 84 1013.1
20260904121034 68 178 3.0 9.0 0.00 0.01 0.01 84 1013.2
20260904120528 68 235 2.0 8.0 0.00 0.01 0.01 84 1013.2
20260904120027 68 191 2.0 10.0 0.00 0.01 0.01 84 1013.3
20260904115527 68 170 3.0 10.0 0.00 0.01 0.01 83 1013.3
20260904115027 68 208 2.0 9.0 0.00 0.01 0.01 83 1013.5
20260904114526 68 200 2.0 9.0 0.00 0.01 0.01 83 1013.6
20260904114026 68 212 2.0 9.0 0.00 0.01 0.01 83 1013.7
20260904113526 68 199 2.0 10.0 0.00 0.01 0.01 82 1013.6
20260904113025 69 221 5.0 11.0 0.00 0.01 0.01 81 1013.8
20260904112525 69 161 3.0 11.0 0.00 0.01 0.01 82 1013.7
20260904112028 69 211 4.0 10.0 0.00 0.01 0.01 81 1014.1
20260904111527 69 269 2.0 7.0 0.00 0.01 0.01 83 1013.9
20260904111024 69 224 3.0 8.0 0.00 0.01 0.01 82 1014.0
20260904110523 69 246 2.0 8.0 0.00 0.01 0.01 82 1014.1
20260904110035 69 301 2.0 9.0 0.00 0.01 0.01 83 1014.2
20260904105521 68 284 3.0 11.0 0.00 0.01 0.01 83 1014.2
20260904105020 68 275 5.0 11.0 0.00 0.01 0.01 82 1014.2
20260904104520 68 248 5.0 14.0 0.00 0.01 0.01 83 1014.3
20260904104018 68 275 5.0 14.0 0.00 0.01 0.01 83 1014.4
20260904103520 68 250 5.0 10.0 0.00 0.01 0.01 82 1014.4
20260904103018 68 186 4.0 12.0 0.00 0.01 0.01 83 1014.5
20260904102516 68 204 3.0 12.0 0.00 0.01 0.01 85 1014.4
20260904102015 67 180 4.0 11.0 0.00 0.01 0.01 84 1014.5
20260904101516 67 229 4.0 11.0 0.00 0.01 0.01 85 1014.6
20260904101013 66 236 3.0 10.0 0.00 0.01 0.01 87 1014.6
20260904100513 66 229 3.0 10.0 0.00 0.01 0.01 88 1014.8
20260904100010 65 282 3.0 10.0 0.00 0.01 0.01 88 1014.9
20260904095509 65 238 2.0 7.0 0.00 0.01 0.01 90 1015.0
20260904095007 65 234 3.0 6.0 0.00 0.01 0.01 90 1015.0
20260904094507 65 205 1.0 9.0 0.00 0.01 0.01 90 1015.0
20260904094007 65 201 4.0 9.0 0.00 0.01 0.01 91 1015.0
20260904093506 64 140 3.0 7.0 0.00 0.01 0.01 90 1015.1
20260904093004 65 196 3.0 8.0 0.00 0.01 0.01 91 1015.2
20260904092504 65 255 2.0 9.0 0.00 0.01 0.01 91 1015.3
20260904092004 64 298 3.0 10.0 0.00 0.01 0.01 91 1015.4
20260904091504 64 234 3.0 12.0 0.00 0.01 0.01 92 1015.5
20260904091001 64 212 4.0 12.0 0.00 0.01 0.01 93 1015.5
20260904090500 64 219 3.0 9.0 0.00 0.01 0.01 93 1015.4
20260904090101 63 248 4.0 9.0 0.00 0.01 0.01 93 1015.5
20260904085601 63 249 3.0 9.0 0.00 0.01 0.01 94 1015.7
20260904085059 63 223 3.0 9.0 0.00 0.01 0.01 94 1015.6
20260904084600 63 231 1.0 8.0 0.00 0.01 0.01 95 1015.6
20260904084100 63 246 3.0 13.0 0.00 0.01 0.01 96 1015.5
20260904083559 62 233 4.0 13.0 0.00 0.01 0.01 96 1015.6
20260904083054 62 250 5.0 10.0 0.00 0.01 0.01 97 1015.6
20260904082553 61 199 3.0 10.0 0.01 0.01 0.01 97 1015.7
20260904082053 61 248 4.0 8.0 0.01 0.01 0.01 98 1015.7
20260904081552 60 240 3.0 8.0 0.01 0.01 0.01 98 1015.8
20260904081152 60 311 3.0 8.0 0.01 0.01 0.01 97 1015.7
20260904080551 60 190 2.0 7.0 0.01 0.01 0.01 98 1015.9
20260904080056 60 227 0.0 6.0 0.01 0.01 0.01 97 1015.9
20260904075551 60 225 2.0 6.0 0.01 0.01 0.01 97 1015.9
20260904075050 60 250 1.0 4.0 0.01 0.01 0.01 97 1015.9
20260904074554 60 264 1.0 4.0 0.01 0.01 0.01 97 1016.0
20260904074048 60 180 1.0 6.0 0.01 0.01 0.01 97 1016.1
20260904073547 60 186 1.0 6.0 0.01 0.01 0.01 96 1016.1
20260904073047 60 185 1.0 7.0 0.01 0.01 0.01 96 1016.3
20260904072546 60 232 1.0 8.0 0.00 0.00 0.00 95 1016.2
20260904072050 60 259 3.0 7.0 0.00 0.00 0.00 95 1016.4
20260904071548 61 242 2.0 6.0 0.00 0.00 0.00 94 1016.3
20260904071046 61 269 2.0 7.0 0.00 0.00 0.00 94 1016.3
20260904070548 61 295 0.0 5.0 0.00 0.00 0.00 93 1016.4
20260904070048 61 233 0.0 1.0 0.00 0.00 0.00 93 1016.3
20260904065543 61 271 0.0 1.0 0.00 0.00 0.00 93 1016.2
20260904065047 61 191 0.0 0.0 0.00 0.00 0.00 93 1016.3
20260904064546 61 182 0.0 0.0 0.00 0.00 0.00 93 1016.5
20260904064043 61 251 0.0 0.0 0.00 0.00 0.00 93 1016.2
20260904063543 61 248 0.0 0.0 0.00 0.00 0.00 93 1016.3
20260904063039 60 221 0.0 0.0 0.00 0.00 0.00 93 1016.2
20260904062538 60 221 0.0 0.0 0.00 0.00 0.00 93 1016.3
20260904062038 60 246 0.0 0.0 0.00 0.00 0.00 92 1016.4
20260904061548 60 244 0.0 0.0 0.00 0.00 0.00 92 1016.6
20260904061038 60 242 0.0 0.0 0.00 0.00 0.00 92 1016.5
20260904060538 60 230 0.0 0.0 0.00 0.00 0.00 92 1016.4
20260904060038 60 274 0.0 0.0 0.00 0.00 0.00 92 1016.6
20260904055538 60 195 0.0 0.0 0.00 0.00 0.00 92 1016.6
20260904055037 60 238 0.0 0.0 0.00 0.00 0.00 92 1016.6
20260904054537 60 263 0.0 0.0 0.00 0.00 0.00 92 1016.5
20260904054037 60 290 0.0 0.0 0.00 0.00 0.00 92 1016.5
20260904053537 60 238 0.0 0.0 0.00 0.00 0.00 92 1016.7
20260904053036 60 250 0.0 0.0 0.00 0.00 0.00 92 1016.7
20260904052536 60 247 0.0 0.0 0.00 0.00 0.00 92 1016.6
20260904052036 60 250 0.0 0.0 0.00 0.00 0.00 92 1016.4
20260904051538 60 181 0.0 0.0 0.00 0.00 0.00 92 1016.6
20260904051032 60 206 0.0 0.0 0.00 0.00 0.00 92 1016.8
20260904050535 60 206 0.0 0.0 0.00 0.00 0.00 92 1016.9
20260904050032 60 250 0.0 0.0 0.00 0.00 0.00 92 1017.1
20260904045532 60 264 0.0 0.0 0.00 0.00 0.00 92 1016.9
20260904045030 60 225 0.0 0.0 0.00 0.00 0.00 92 1017.0
20260904044535 60 229 0.0 0.0 0.00 0.00 0.00 92 1016.9
20260904044033 60 225 0.0 0.0 0.00 0.00 0.00 92 1016.6
20260904043528 59 235 0.0 0.0 0.00 0.00 0.00 92 1016.7
20260904043028 59 231 0.0 0.0 0.00 0.00 0.00 92 1016.8
20260904042527 59 231 0.0 0.0 0.00 0.00 0.00 92 1016.9
20260904042027 59 247 0.0 0.0 0.00 0.00 0.00 92 1016.9
20260904041526 59 243 0.0 0.0 0.00 0.00 0.00 92 1016.9
20260904041027 59 248 0.0 0.0 0.00 0.00 0.00 92 1017.0
20260904040526 59 252 0.0 0.0 0.00 0.00 0.00 92 1017.0
20260904040026 59 250 0.0 0.0 0.00 0.00 0.00 92 1017.0
20260904035526 59 242 0.0 0.0 0.00 0.00 0.00 93 1017.0
20260904035125 59 242 0.0 0.0 0.00 0.00 0.00 93 1017.0
20260904034542 59 240 0.0 0.0 0.00 0.00 0.00 92 1017.1
20260904034026 59 262 0.0 0.0 0.00 0.00 0.00 93 1017.2
20260904033524 59 265 0.0 0.0 0.00 0.00 0.00 93 1017.3
20260904033024 58 265 0.0 0.0 0.00 0.00 0.00 93 1017.2
20260904032522 58 194 0.0 0.0 0.00 0.00 0.00 93 1017.2
20260904032022 58 171 0.0 0.0 0.00 0.00 0.00 92 1017.2
20260904031522 58 171 0.0 0.0 0.00 0.00 0.00 92 1017.2
20260904031021 59 171 0.0 0.0 0.00 0.00 0.00 92 1017.1
20260904030521 59 171 0.0 0.0 0.00 0.00 0.00 92 1017.2
20260904030021 59 171 0.0 0.0 0.00 0.00 0.00 92 1017.2
20260904025521 59 238 0.0 0.0 0.00 0.00 0.00 92 1017.2
20260904025020 59 238 0.0 0.0 0.00 0.00 0.00 92 1017.3
20260904024520 59 238 0.0 0.0 0.00 0.00 0.00 92 1017.3
20260904024020 59 238 0.0 0.0 0.00 0.00 0.00 92 1017.4
20260904023519 59 257 0.0 0.0 0.00 0.00 0.00 92 1017.3
20260904023019 58 274 0.0 0.0 0.00 0.00 0.00 92 1017.5
20260904022524 58 274 0.0 0.0 0.00 0.00 0.00 92 1017.3
20260904022021 58 274 0.0 0.0 0.00 0.00 0.00 92 1017.3
20260904021517 58 242 0.0 0.0 0.00 0.00 0.00 92 1017.3
20260904021017 59 266 0.0 0.0 0.00 0.00 0.00 91 1017.4
20260904020516 59 266 0.0 0.0 0.00 0.00 0.00 91 1017.5
20260904020016 59 266 0.0 0.0 0.00 0.00 0.00 91 1017.5
20260904015520 59 266 0.0 0.0 0.00 0.00 0.00 91 1017.5
20260904015015 59 266 0.0 0.0 0.00 0.00 0.00 91 1017.6
20260904014515 59 266 0.0 0.0 0.00 0.00 0.00 91 1017.6
20260904014015 59 266 0.0 0.0 0.00 0.00 0.00 90 1017.6
20260904013513 59 219 0.0 0.0 0.00 0.00 0.00 90 1017.7
20260904013013 59 219 0.0 0.0 0.00 0.00 0.00 90 1017.6
20260904012513 59 200 0.0 0.0 0.00 0.00 0.00 90 1017.8
20260904012013 59 196 0.0 0.0 0.00 0.00 0.00 90 1017.8
20260904011537 60 196 0.0 0.0 0.00 0.00 0.00 89 1017.8
20260904011012 60 196 0.0 0.0 0.00 0.00 0.00 89 1017.6
20260904010511 60 196 0.0 0.0 0.00 0.00 0.00 89 1017.8
20260904010012 60 198 0.0 0.0 0.00 0.00 0.00 89 1017.9
20260904005515 60 180 0.0 0.0 0.00 0.00 0.00 89 1017.8
20260904005011 60 180 0.0 0.0 0.00 0.00 0.00 89 1017.8
20260904004511 60 144 0.0 0.0 0.00 0.00 0.00 89 1017.9
20260904004014 60 229 0.0 0.0 0.00 0.00 0.00 89 1017.8
20260904003516 60 233 0.0 0.0 0.00 0.00 0.00 89 1018.1
20260904003013 60 210 0.0 0.0 0.00 0.00 0.00 89 1017.9
20260904002510 60 210 0.0 0.0 0.00 0.00 0.00 89 1017.8
20260904002010 59 210 0.0 0.0 0.00 0.00 0.00 89 1017.7
20260904001510 60 210 0.0 0.0 0.00 0.00 0.00 89 1017.8
20260904001009 60 210 0.0 0.0 0.00 0.00 0.00 89 1017.7
20260904000509 60 210 0.0 0.0 0.00 0.00 0.00 89 1017.7
20260904000011 60 210 0.0 0.0 0.00 0.00 0.00 89 1017.9
20260903235511 60 210 0.0 0.0 0.00 0.00 0.00 89 1018.0
20260903235008 60 210 0.0 0.0 0.00 0.00 0.00 89 1018.0
20260903234507 60 210 0.0 0.0 0.00 0.00 0.00 89 1018.1
20260903234007 60 210 0.0 0.0 0.00 0.00 0.00 89 1018.3
20260903233505 60 210 0.0 0.0 0.00 0.00 0.00 88 1018.3
20260903233016 60 210 0.0 0.0 0.00 0.00 0.00 88 1018.4
20260903232505 60 210 0.0 0.0 0.00 0.00 0.00 88 1018.3
20260903232005 60 210 0.0 0.0 0.00 0.00 0.00 88 1018.4
20260903231504 60 217 0.0 0.0 0.00 0.00 0.00 88 1018.6
20260903231001 60 217 0.0 0.0 0.00 0.00 0.00 88 1018.5
20260903230600 60 217 0.0 0.0 0.00 0.00 0.00 88 1018.5
20260903230100 60 225 0.0 0.0 0.00 0.00 0.00 88 1018.4
20260903225600 59 225 0.0 0.0 0.00 0.00 0.00 88 1018.4
20260903225103 59 226 0.0 0.0 0.00 0.00 0.00 88 1018.3
20260903224558 59 209 0.0 0.0 0.00 0.00 0.00 88 1018.4
20260903224100 59 209 0.0 0.0 0.00 0.00 0.00 88 1018.4
20260903223557 59 229 0.0 0.0 0.00 0.00 0.00 88 1018.4
20260903223058 59 225 0.0 0.0 0.00 0.00 0.00 88 1018.4
20260903222557 60 225 0.0 0.0 0.00 0.00 0.00 88 1018.5
20260903222057 60 231 0.0 0.0 0.00 0.00 0.00 88 1018.5
20260903221557 60 232 0.0 0.0 0.00 0.00 0.00 87 1018.5
20260903221056 60 232 0.0 0.0 0.00 0.00 0.00 87 1018.5
20260903220600 60 207 0.0 0.0 0.00 0.00 0.00 87 1018.5
20260903220105 60 207 0.0 0.0 0.00 0.00 0.00 87 1018.4
20260903215553 60 273 0.0 0.0 0.00 0.00 0.00 87 1018.5
20260903215054 60 206 0.0 0.0 0.00 0.00 0.00 86 1018.5
20260903214556 60 199 0.0 0.0 0.00 0.00 0.00 86 1018.5
20260903214054 60 257 0.0 0.0 0.00 0.00 0.00 86 1018.7
20260903213554 60 231 0.0 8.0 0.00 0.00 0.00 86 1018.7
20260903213059 60 278 1.0 8.0 0.00 0.00 0.00 86 1018.6
20260903212557 60 271 0.0 1.0 0.00 0.00 0.00 86 1018.6
20260903212053 60 225 0.0 2.0 0.00 0.00 0.00 85 1018.4
20260903211655 60 198 0.0 7.0 0.00 0.00 0.00 85 1018.4
20260903211052 61 253 2.0 7.0 0.00 0.00 0.00 85 1018.5
20260903210552 61 211 2.0 8.0 0.00 0.00 0.00 84 1018.3
20260903210059 61 252 3.0 8.0 0.00 0.00 0.00 84 1018.5
20260903205551 61 232 2.0 7.0 0.00 0.00 0.00 84 1018.6
20260903205051 61 275 2.0 8.0 0.00 0.00 0.00 84 1018.6
20260903204551 61 191 2.0 9.0 0.00 0.00 0.00 84 1018.6
20260903204051 61 191 3.0 9.0 0.00 0.00 0.00 84 1018.5
20260903203551 61 236 2.0 9.0 0.00 0.00 0.00 84 1018.6
20260903203113 61 279 2.0 10.0 0.00 0.00 0.00 84 1018.6
20260903202550 61 252 3.0 10.0 0.00 0.00 0.00 83 1018.5
20260903202050 61 161 3.0 9.0 0.00 0.00 0.00 83 1018.5
20260903201550 61 208 2.0 10.0 0.00 0.00 0.00 83 1018.6
20260903201049 61 162 3.0 10.0 0.00 0.00 0.00 83 1018.6
20260903200551 61 225 2.0 6.0 0.00 0.00 0.00 84 1018.6
20260903200049 61 234 3.0 8.0 0.00 0.00 0.00 84 1018.7
20260903195553 61 220 2.0 8.0 0.00 0.00 0.00 84 1018.7
20260903195049 61 244 1.0 8.0 0.00 0.00 0.00 84 1018.7
20260903194651 61 150 2.0 8.0 0.00 0.00 0.00 84 1018.7
20260903194048 61 225 3.0 8.0 0.00 0.00 0.00 85 1019.0
20260903193549 61 209 2.0 10.0 0.00 0.00 0.00 85 1018.8
20260903193047 61 236 2.0 10.0 0.00 0.00 0.00 85 1018.7
20260903192549 61 229 2.0 9.0 0.00 0.00 0.00 84 1018.6
20260903192046 61 200 3.0 10.0 0.00 0.00 0.00 85 1018.7
20260903191550 61 227 5.0 12.0 0.00 0.00 0.00 85 1018.8
20260903191046 61 281 2.0 12.0 0.00 0.00 0.00 86 1018.8
20260903190550 61 236 3.0 8.0 0.00 0.00 0.00 86 1018.8
20260903190047 61 311 2.0 10.0 0.00 0.00 0.00 87 1018.7
20260903185550 61 229 1.0 7.0 0.00 0.00 0.00 87 1018.7
20260903185046 61 184 3.0 9.0 0.00 0.00 0.00 87 1018.8
20260903184546 61 184 4.0 13.0 0.00 0.00 0.00 87 1018.8
20260903184048 61 184 2.0 13.0 0.00 0.00 0.00 87 1018.8
20260903183544 61 232 3.0 11.0 0.00 0.00 0.00 86 1018.9
20260903183047 61 268 4.0 11.0 0.00 0.00 0.00 86 1018.8
20260903182545 61 231 4.0 11.0 0.00 0.00 0.00 86 1018.9
20260903182046 61 266 3.0 11.0 0.00 0.00 0.00 85 1018.9